Date,TemperatureHighF,TemperatureAvgF,TemperatureLowF,DewpointHighF,DewpointAvgF,DewpointLowF,HumidityHigh,HumidityAvg,HumidityLow,PressureMaxIn,PressureMinIn,WindSpeedMaxMPH,WindSpeedAvgMPH,GustSpeedMaxMPH,PrecipitationSumIn
2013-1-1,71,59,45,61,52,43,97,79,59,0.00,40.00,13,6,19,0.00
2013-1-2,67,59,52,63,48,37,98,71,37,0.00,40.00,11,6,16,0.15
2013-1-3,51,45,38,43,41,33,95,85,73,0.00,40.00,7,5,12,0.18
2013-1-4,57,43,32,40,32,25,85,67,42,0.00,40.00,7,4,12,0.01
2013-1-5,54,44,32,40,30,22,86,60,29,0.00,40.00,7,4,11,0.00
2013-1-6,57,49,45,44,39,36,87,68,50,0.00,40.00,7,4,11,0.00
2013-1-7,58,44,32,38,33,30,94,69,36,0.00,40.00,14,6,22,0.00
2013-1-8,64,53,43,50,41,34,74,66,53,0.00,40.00,8,7,13,0.00
2013-1-9,65,58,53,58,52,46,85,80,74,0.00,40.00,8,6,15,0.00
2013-1-10,66,64,61,64,62,59,98,94,88,0.00,40.00,11,7,19,0.01
2013-1-11,76,68,62,64,62,60,98,82,59,0.00,40.00,11,7,20,0.01
2013-1-12,78,66,57,62,58,56,99,79,49,0.00,40.00,10,5,19,0.00
2013-1-13,77,68,59,64,62,59,99,82,58,0.00,40.00,11,7,18,0.00
2013-1-14,76,69,65,65,63,58,96,81,61,0.00,40.00,12,7,21,0.00
2013-1-15,74,65,58,63,61,58,99,85,67,0.00,40.00,11,6,20,0.00
2013-1-16,76,68,64,66,64,62,98,87,62,0.00,40.00,11,7,20,0.12
2013-1-17,65,52,38,64,48,31,99,86,73,0.00,40.00,18,10,28,0.27
2013-1-18,58,44,35,37,32,26,90,67,31,0.00,40.00,11,7,19,0.01
2013-1-19,62,46,32,45,33,25,88,63,42,0.00,40.00,8,4,14,0.00
2013-1-20,66,51,40,44,36,26,94,63,22,0.00,40.00,9,4,17,0.00
2013-1-21,65,52,36,38,35,33,90,57,32,0.00,40.00,11,5,17,0.00
2013-1-22,55,44,34,30,21,15,77,44,23,0.00,40.00,12,6,18,0.00
2013-1-23,60,44,29,40,30,21,86,59,35,0.00,40.00,11,4,17,0.00
2013-1-24,69,55,47,48,43,30,87,65,42,0.00,40.00,15,7,22,0.00
2013-1-25,58,50,41,49,36,17,89,60,29,0.00,40.00,10,6,17,0.00
2013-1-26,67,55,40,53,44,26,94,72,26,0.00,40.00,8,5,13,0.00
2013-1-27,63,50,38,44,38,31,82,64,45,0.00,40.00,10,6,16,0.00
2013-1-28,70,56,48,58,48,38,96,77,62,0.00,40.00,7,5,12,0.00
2013-1-29,78,64,48,63,56,48,99,78,53,0.00,40.00,12,6,20,0.00
2013-1-30,73,65,51,68,61,45,93,85,78,0.00,40.00,21,13,36,0.67
2013-1-31,55,47,38,37,24,17,72,44,23,0.00,40.00,17,9,39,0.64
2013-2-1,54,44,34,30,21,2,61,43,12,0.00,40.00,14,7,21,0.00
2013-2-2,60,43,26,27,20,13,80,43,21,0.00,40.00,8,4,15,0.00
2013-2-3,63,51,36,42,33,26,95,56,24,0.00,40.00,18,8,27,0.00
2013-2-4,58,44,32,38,31,27,89,64,31,0.00,40.00,6,2,9,0.00
2013-2-5,70,56,39,52,46,35,95,73,46,0.00,40.00,13,6,17,0.00
2013-2-6,74,58,47,55,49,46,99,77,40,0.00,40.00,7,3,12,0.00
2013-2-7,54,52,49,53,50,47,98,95,83,0.00,40.00,15,7,21,2.22
2013-2-8,61,53,47,51,48,45,96,84,68,0.00,40.00,11,6,16,0.03
2013-2-9,63,48,34,47,36,32,94,67,36,0.00,40.00,10,5,15,0.00
2013-2-10,68,58,43,60,46,29,97,65,49,0.00,40.00,17,10,26,0.91
2013-2-11,65,61,56,63,59,55,99,95,80,0.00,40.00,13,7,20,3.45
2013-2-12,57,54,48,56,51,45,99,92,71,0.00,40.00,13,7,20,1.62
2013-2-13,62,54,46,56,50,44,100,89,59,0.00,40.00,14,7,26,0.87
2013-2-14,52,44,39,44,38,35,94,80,60,0.00,40.00,8,5,15,0.04
2013-2-15,65,49,34,42,36,33,97,68,30,0.00,40.00,7,3,12,0.00
2013-2-16,49,44,35,37,23,7,77,47,21,0.00,40.00,17,9,29,0.00
2013-2-17,49,36,27,29,14,-2,82,47,12,0.00,40.00,10,5,20,0.00
2013-2-18,58,43,28,29,26,19,88,55,28,0.00,40.00,10,4,19,0.00
2013-2-19,64,52,43,53,38,24,94,63,38,0.00,40.00,13,7,21,0.11
2013-2-20,61,47,35,33,21,14,76,38,16,0.00,40.00,14,5,20,0.01
2013-2-21,67,50,33,36,27,20,76,45,20,0.00,40.00,9,5,16,0.00
2013-2-22,58,52,47,51,48,34,100,88,44,0.00,40.00,13,9,30,1.15
2013-2-23,51,48,44,51,47,43,100,99,98,0.00,40.00,10,6,22,1.56
2013-2-24,70,54,45,50,45,34,100,78,27,0.00,40.00,7,4,14,0.05
2013-2-25,54,52,50,53,49,41,99,90,65,0.00,40.00,19,8,27,1.28
2013-2-26,68,56,47,62,47,38,99,76,43,0.00,40.00,16,10,28,1.25
2013-2-27,59,50,42,41,37,33,75,61,42,0.00,40.00,11,8,19,0.01
2013-2-28,58,49,40,40,32,26,82,56,31,0.00,40.00,15,9,24,0.00
2013-3-1,51,43,35,29,27,25,76,55,36,0.00,40.00,14,7,20,0.00
2013-3-2,41,38,31,29,26,23,82,64,51,0.00,40.00,12,8,19,0.00
2013-3-3,45,38,34,27,21,17,72,52,33,0.00,40.00,13,8,22,0.00
2013-3-4,60,45,27,33,24,17,88,48,22,0.00,40.00,9,4,14,0.00
2013-3-5,72,56,46,58,46,31,92,68,42,0.00,40.00,18,10,32,0.21
2013-3-6,50,43,37,34,26,18,74,51,36,0.00,40.00,18,12,34,0.21
2013-3-7,63,46,31,34,29,26,83,55,26,0.00,40.00,8,5,16,0.00
2013-3-8,66,49,36,39,32,28,84,57,24,0.00,40.00,10,5,15,0.00
2013-3-9,67,52,35,42,34,26,92,57,24,0.00,40.00,11,4,16,0.00
2013-3-10,73,61,50,51,42,32,72,51,27,0.00,40.00,11,7,20,0.00
2013-3-11,69,61,56,60,54,51,97,79,56,0.00,40.00,16,8,29,0.92
2013-3-12,66,54,41,59,40,31,98,64,29,0.00,40.00,12,8,20,1.25
2013-3-13,64,53,42,32,26,14,67,39,15,0.00,40.00,17,9,26,0.01
2013-3-14,60,47,34,27,19,13,56,36,16,0.00,40.00,12,7,20,0.00
2013-3-15,74,55,35,40,32,26,88,48,24,0.00,40.00,13,6,19,0.00
2013-3-16,76,63,48,48,43,39,90,53,26,0.00,40.00,14,9,27,0.00
2013-3-17,70,62,54,60,55,48,96,78,58,0.00,40.00,11,6,21,0.00
2013-3-18,76,64,57,64,59,56,98,87,64,0.00,40.00,11,7,38,1.09
2013-3-19,75,62,54,57,44,23,99,63,14,0.00,40.00,14,7,21,1.25
2013-3-20,65,54,43,34,28,20,62,39,19,0.00,40.00,10,6,16,0.01
2013-3-21,59,48,38,35,23,13,65,40,18,0.00,40.00,13,7,20,0.00
2013-3-22,53,47,41,45,34,21,89,62,38,0.00,40.00,13,6,18,0.10
2013-3-23,60,53,49,54,47,43,95,81,71,0.00,40.00,17,6,31,0.26
2013-3-24,72,60,52,57,54,39,99,83,55,0.00,40.00,17,9,35,2.46
2013-3-25,55,48,41,39,24,15,56,41,21,0.00,40.00,19,14,35,0.15
2013-3-26,50,41,32,23,21,19,67,46,30,0.00,40.00,16,10,26,0.00
2013-3-27,60,43,32,24,22,18,68,47,21,0.00,40.00,10,6,19,0.00
2013-3-28,67,60,46,37,28,22,68,33,18,0.00,40.00,8,5,17,0.00
2013-3-29,72,55,36,44,34,27,89,52,22,0.00,40.00,8,3,14,0.00
2013-3-30,74,63,48,51,43,-100,78,51,37,0.00,40.00,10,6,19,0.00
2013-3-31,78,66,58,63,54,44,93,65,41,0.00,40.00,13,9,21,0.79
2013-4-1,78,67,59,60,55,43,97,71,35,0.00,40.00,12,7,18,0.88
2013-4-2,77,62,50,54,45,38,81,58,25,0.00,40.00,10,4,15,0.01
2013-4-3,63,55,51,52,43,33,93,66,44,0.00,40.00,10,7,20,0.35
2013-4-4,54,49,45,52,48,44,96,95,87,0.00,40.00,12,10,25,0.29
2013-4-5,58,48,43,50,44,42,99,87,60,0.00,40.00,10,6,16,0.13
2013-4-6,72,56,40,51,45,39,98,71,32,0.00,40.00,8,3,16,0.01
2013-4-7,77,63,46,59,50,45,97,67,37,0.00,40.00,8,4,15,0.00
2013-4-8,80,68,57,59,56,53,92,68,40,0.00,40.00,10,6,18,0.00
2013-4-9,84,69,57,62,58,54,96,72,37,0.00,40.00,9,4,16,0.00
2013-4-10,83,72,60,60,58,54,92,65,38,0.00,40.00,10,5,18,0.00
2013-4-11,80,71,62,71,63,55,96,77,61,0.00,40.00,15,8,25,0.10
2013-4-12,76,69,57,70,56,41,94,71,29,0.00,40.00,14,8,33,0.95
2013-4-13,80,65,53,54,43,35,74,48,20,0.00,40.00,10,6,19,0.19
2013-4-14,61,58,54,59,54,47,97,86,65,0.00,40.00,18,5,37,0.94
2013-4-15,78,66,55,66,60,55,100,83,57,0.00,40.00,7,3,11,0.18
2013-4-16,82,70,61,68,63,60,98,81,53,0.00,40.00,10,5,15,0.00
2013-4-17,82,72,64,66,62,60,93,74,48,0.00,40.00,8,4,15,0.00
2013-4-18,81,71,59,65,61,58,98,74,46,0.00,40.00,11,6,17,0.00
2013-4-19,75,63,49,69,59,47,94,86,69,0.00,40.00,11,8,27,0.73
2013-4-20,67,54,43,48,38,29,94,60,27,0.00,40.00,13,8,21,0.20
2013-4-21,71,58,42,46,40,36,90,57,28,0.00,40.00,15,8,25,0.00
2013-4-22,71,62,54,51,47,43,80,60,43,0.00,40.00,16,9,23,0.00
2013-4-23,76,62,48,56,47,40,92,59,38,0.00,40.00,9,5,16,0.00
2013-4-24,80,67,53,65,57,52,98,75,47,0.00,40.00,13,5,20,0.00
2013-4-25,79,68,59,63,52,33,95,63,19,0.00,40.00,11,5,17,0.00
2013-4-26,81,64,46,51,39,32,64,42,19,0.00,40.00,9,6,16,0.00
2013-4-27,82,70,55,56,51,-100,87,57,34,0.00,40.00,12,7,19,0.00
2013-4-28,80,69,60,66,60,55,95,75,52,0.00,40.00,12,7,26,0.33
2013-4-29,76,67,61,66,63,59,99,89,64,0.00,40.00,7,3,16,0.36
2013-4-30,81,71,58,65,60,56,100,72,42,0.00,40.00,5,2,12,0.01
2013-5-1,71,67,62,62,59,55,97,78,64,0.00,40.00,13,8,22,0.00
2013-5-2,72,66,61,63,60,56,95,84,69,0.00,40.00,13,9,21,0.16
2013-5-3,69,65,63,61,59,57,90,81,67,0.00,40.00,15,11,27,0.15
2013-5-4,64,59,53,62,57,52,97,93,85,0.00,40.00,11,9,22,1.22
2013-5-5,71,58,51,60,50,43,98,79,44,0.00,40.00,9,6,21,0.66
2013-5-6,65,55,43,53,46,42,96,72,47,0.00,40.00,10,6,18,0.08
2013-5-7,70,61,54,54,51,45,96,74,42,0.00,40.00,11,6,19,0.06
2013-5-8,79,64,50,58,52,49,95,68,37,0.00,40.00,10,5,16,0.06
2013-5-9,85,71,58,61,56,50,92,65,31,0.00,40.00,8,4,14,0.00
2013-5-10,81,71,59,62,58,51,96,67,35,0.00,40.00,10,4,18,0.00
2013-5-11,79,69,62,64,60,-100,91,76,56,0.00,40.00,10,6,15,0.00
2013-5-12,79,70,62,63,53,41,93,59,33,0.00,40.00,11,8,20,0.00
2013-5-13,74,63,48,41,34,27,67,38,18,0.00,40.00,13,8,20,0.00
2013-5-14,81,65,46,56,45,35,90,53,27,0.00,40.00,8,3,14,0.00
2013-5-15,87,72,59,59,54,50,76,56,32,0.00,40.00,9,5,15,0.00
2013-5-16,85,66,65,60,32,-100,78,53,31,0.00,40.00,8,4,15,0.00
2013-5-17,86,73,64,64,54,-100,92,64,38,0.00,40.00,9,4,15,0.00
2013-5-18,78,70,64,69,65,60,96,84,64,0.00,40.00,9,4,13,0.25
2013-5-19,86,73,66,70,67,65,97,83,51,0.00,40.00,13,4,27,0.06
2013-5-20,86,76,66,70,68,65,99,78,50,0.00,40.00,7,4,13,0.05
2013-5-21,90,79,67,70,67,63,98,70,41,0.00,40.00,6,4,17,0.08
2013-5-22,87,75,66,70,67,63,97,78,51,0.00,40.00,10,4,32,0.59
2013-5-23,88,77,67,68,63,54,98,67,33,0.00,40.00,11,6,23,0.56
2013-5-24,83,74,63,62,54,45,75,52,26,0.00,40.00,15,8,23,0.01
2013-5-25,85,69,53,57,48,42,83,52,25,0.00,40.00,9,5,14,0.00
2013-5-26,89,73,57,62,55,50,92,59,27,0.00,40.00,7,3,13,0.00
2013-5-27,87,75,62,65,60,56,93,64,36,0.00,40.00,8,4,13,0.00
2013-5-28,87,76,61,63,58,48,97,60,28,0.00,40.00,10,6,16,0.00
2013-5-29,89,77,63,67,62,57,94,64,35,0.00,40.00,11,7,20,0.00
2013-5-30,90,80,71,69,65,61,92,64,41,0.00,40.00,11,8,19,0.00
2013-5-31,89,79,68,69,64,60,97,64,40,0.00,40.00,12,8,20,0.00
2013-6-1,89,79,68,69,64,-100,95,67,46,0.00,40.00,10,6,17,0.00
2013-6-2,89,79,70,72,69,65,97,73,50,0.00,40.00,11,7,26,1.43
2013-6-3,87,76,69,76,70,68,98,84,55,0.00,40.00,8,4,17,1.71
2013-6-4,90,80,72,74,72,70,97,79,52,0.00,40.00,8,5,17,0.06
2013-6-5,89,77,70,72,69,67,95,78,53,0.00,40.00,13,6,20,0.04
2013-6-6,74,72,69,73,70,68,97,94,88,0.00,40.00,9,6,15,0.59
2013-6-7,89,75,68,71,68,62,98,81,41,0.00,40.00,14,7,22,0.27
2013-6-8,88,76,67,71,68,66,98,79,51,0.00,40.00,7,4,14,0.07
2013-6-9,83,76,71,76,71,70,97,86,69,0.00,40.00,8,5,14,0.05
2013-6-10,81,75,71,74,72,70,98,89,74,0.00,40.00,10,6,33,0.36
2013-6-11,91,80,72,72,70,67,97,77,46,0.00,40.00,9,7,16,0.34
2013-6-12,95,84,73,77,72,69,90,69,45,0.00,40.00,10,5,16,0.00
2013-6-13,94,85,76,77,71,67,91,66,42,0.00,40.00,15,7,25,0.00
2013-6-14,89,80,72,73,67,63,87,67,43,0.00,40.00,9,6,25,0.00
2013-6-15,89,79,66,67,62,56,91,60,35,0.00,40.00,11,5,19,0.00
2013-6-16,92,81,70,70,66,63,89,64,40,0.00,40.00,7,4,13,0.00
2013-6-17,91,80,73,74,70,66,92,73,50,0.00,40.00,9,5,15,0.00
2013-6-18,85,76,72,75,72,68,94,87,67,0.00,40.00,11,6,22,1.56
2013-6-19,86,76,70,74,71,69,96,84,58,0.00,40.00,9,5,15,1.00
2013-6-20,85,76,71,74,70,68,98,85,59,0.00,40.00,10,6,17,0.00
2013-6-22,88,82,72,71,68,65,97,65,48,0.00,40.00,10,6,22,0.52
2013-6-23,88,76,71,74,72,70,97,88,58,0.00,40.00,7,4,16,0.56
2013-6-24,89,76,70,75,71,69,99,86,59,0.00,40.00,11,4,20,0.15
2013-6-25,90,77,69,74,71,68,99,83,55,0.00,40.00,7,4,15,0.15
2013-6-26,91,80,71,75,71,69,97,76,48,0.00,40.00,9,5,15,0.00
2013-6-27,89,82,75,76,72,64,95,75,54,0.00,40.00,12,8,24,0.54
2013-6-28,94,82,71,74,70,62,95,67,51,0.00,40.00,14,9,25,1.89
2013-6-29,86,77,70,74,70,66,97,80,65,0.00,40.00,11,7,22,1.13
2013-6-30,84,75,69,74,72,64,98,89,67,0.00,40.00,7,5,20,1.59
2013-7-1,85,74,68,74,68,62,95,81,65,0.00,40.00,11,4,22,0.20
2013-7-2,83,80,72,68,66,65,88,65,58,0.00,40.00,10,6,14,0.26
2013-7-3,80,76,71,73,67,63,100,76,70,0.00,40.00,8,5,29,1.51
2013-7-4,79,74,71,70,67,62,93,77,73,0.00,40.00,14,8,24,1.42
2013-7-5,83,76,70,74,71,66,98,86,64,0.00,40.00,7,4,15,0.21
2013-7-6,85,83,79,69,68,65,64,62,58,0.00,40.00,11,9,20,1.61
2013-7-7,90,85,78,71,68,64,63,57,46,0.00,40.00,6,4,12,0.05
2013-7-8,91,79,72,77,72,62,100,79,58,0.00,40.00,5,3,14,0.27
2013-7-9,92,81,71,75,70,62,85,71,55,0.00,40.00,7,3,11,0.00
2013-7-10,84,75,75,71,62,-100,83,71,65,0.00,40.00,7,3,10,1.13
2013-7-11,87,86,85,67,67,66,53,52,51,0.00,40.00,8,8,14,0.00
2013-7-12,88,79,72,74,70,63,99,77,63,0.00,40.00,7,5,17,1.42
2013-7-13,83,75,70,73,66,62,81,74,68,0.00,40.00,8,5,23,0.34
2013-7-14,87,78,72,73,70,64,99,78,50,0.00,40.00,12,7,20,0.18
2013-7-15,87,76,72,74,70,63,88,80,64,0.00,40.00,13,7,36,0.13
2013-7-16,89,83,73,75,71,63,97,70,47,0.00,40.00,14,7,21,0.33
2013-7-30,92,88,77,69,65,59,56,47,42,0.00,40.00,6,4,11,0.38
2013-8-1,90,88,86,66,66,66,51,48,46,0.00,40.00,9,6,13,0.00
2013-8-2,88,87,83,68,67,66,56,52,51,0.00,40.00,6,4,10,0.00
2013-8-3,91,88,84,68,66,64,57,49,43,0.00,40.00,9,6,17,0.07
2013-8-4,90,86,84,68,67,66,55,53,49,0.00,40.00,9,6,15,0.00
2013-8-5,91,87,77,75,68,61,91,55,43,0.00,40.00,8,5,14,0.00
2013-8-6,91,80,73,77,74,70,100,84,52,0.00,40.00,6,2,11,0.00
2013-8-7,90,80,74,76,74,73,100,84,58,0.00,40.00,11,5,21,0.13
2013-8-8,90,80,72,78,74,72,100,84,55,0.00,40.00,7,4,14,0.13
2013-8-9,92,81,72,78,75,72,100,82,56,0.00,40.00,6,3,10,0.00
2013-8-10,92,83,72,76,73,70,100,74,50,0.00,40.00,8,4,14,0.00
2013-8-11,93,82,71,76,72,69,100,75,46,0.00,40.00,7,3,15,0.00
2013-8-12,94,83,76,75,73,70,98,74,46,0.00,40.00,9,5,14,0.00
2013-8-13,90,79,73,78,71,-100,97,80,57,0.00,40.00,16,6,27,0.34
2013-8-14,85,76,72,75,72,71,97,87,70,0.00,40.00,8,5,18,0.06
2013-8-15,76,67,67,74,59,-100,100,91,87,0.00,40.00,10,6,15,1.14
2013-8-16,71,67,67,69,64,-100,99,94,89,0.00,40.00,10,7,15,0.44
2013-8-17,72,68,66,72,66,-100,100,97,96,0.00,40.00,9,5,12,1.97
2013-8-18,83,75,69,77,73,69,100,94,79,0.00,40.00,7,4,24,0.99
2013-8-19,88,74,71,75,62,-100,100,86,62,0.00,40.00,8,4,15,0.98
2013-8-20,87,76,72,75,71,-100,100,90,68,0.00,40.00,11,5,24,0.41
2013-8-21,89,77,69,75,72,69,100,85,57,0.00,40.00,17,5,29,0.41
2013-8-22,89,78,70,77,73,69,100,86,58,0.00,40.00,5,3,18,0.00
2013-8-23,89,78,69,74,71,69,100,82,53,0.00,40.00,6,3,14,0.01
2013-8-24,86,77,71,74,72,70,100,85,65,0.00,40.00,11,6,18,0.01
2013-8-25,85,75,69,70,64,-100,94,71,45,0.00,40.00,13,7,19,0.00
2013-8-26,83,73,60,67,62,59,96,71,45,0.00,40.00,10,5,20,0.00
2013-8-27,87,77,69,67,64,61,85,68,48,0.00,40.00,6,4,12,0.00
2013-8-28,90,86,76,69,66,65,77,55,44,0.00,40.00,9,6,15,0.00
2013-8-29,93,82,71,74,70,68,90,69,46,0.00,40.00,10,6,17,0.00
2013-8-30,93,80,74,76,73,72,95,81,54,0.00,40.00,8,4,18,0.07
2013-8-31,89,77,71,76,71,-100,99,85,60,0.00,40.00,6,3,11,0.07
2013-9-1,91,79,71,75,73,71,100,84,54,0.00,40.00,12,3,24,0.00
2013-9-2,90,80,72,75,72,68,97,78,51,0.00,40.00,9,5,15,0.00
2013-9-3,92,79,72,75,72,69,96,80,47,0.00,40.00,12,5,23,0.00
2013-9-4,92,79,70,75,72,69,97,81,51,0.00,40.00,7,4,14,0.00
2013-9-5,93,80,71,76,72,70,98,79,47,0.00,40.00,8,3,13,0.00
2013-9-6,91,78,69,74,70,67,96,78,50,0.00,40.00,8,4,14,0.00
2013-9-7,90,77,67,71,68,66,96,76,45,0.00,40.00,6,4,14,0.00
2013-9-8,91,76,65,72,65,-100,98,75,40,0.00,40.00,5,2,12,0.00
2013-9-9,92,79,71,74,70,66,97,76,42,0.00,40.00,10,4,21,0.15
2013-9-10,88,78,70,73,70,66,98,77,48,0.00,40.00,10,5,18,0.15
2013-9-11,89,78,68,73,69,66,98,78,47,0.00,40.00,9,5,15,0.12
2013-9-12,91,77,66,72,67,60,98,77,37,0.00,40.00,6,2,13,0.01
2013-9-13,90,77,69,71,68,66,92,75,45,0.00,40.00,12,4,17,0.00
2013-9-14,87,74,63,70,61,58,86,68,39,0.00,40.00,9,5,13,0.00
2013-9-15,90,74,65,73,65,-100,98,80,49,0.00,40.00,6,4,11,0.00
2013-9-16,91,79,68,73,70,67,98,78,47,0.00,40.00,7,3,15,0.00
2013-9-17,81,75,68,73,70,67,97,85,70,0.00,40.00,12,7,20,0.00
2013-9-18,72,68,65,66,64,61,93,88,81,0.00,40.00,8,6,12,0.00
2013-9-19,85,72,61,64,60,57,95,71,39,0.00,40.00,8,4,15,0.00
2013-9-20,89,73,62,68,64,61,95,76,44,0.00,40.00,8,2,13,0.00
2013-9-21,82,73,68,73,69,65,97,87,65,0.00,40.00,10,6,27,0.92
2013-9-22,79,70,66,71,65,-100,98,88,60,0.00,40.00,9,4,17,1.43
2013-9-23,72,67,63,68,65,59,98,92,82,0.00,40.00,10,6,16,0.14
2013-9-24,75,70,67,68,67,65,96,88,79,0.00,40.00,9,6,15,0.04
2013-9-25,80,73,69,73,70,68,97,91,76,0.00,40.00,10,5,22,0.08
2013-9-26,74,68,62,68,64,61,97,89,71,0.00,40.00,10,7,15,0.00
2013-9-27,79,67,59,61,58,53,97,75,41,0.00,40.00,12,6,21,0.00
2013-9-28,78,66,56,56,55,52,93,71,43,0.00,40.00,13,7,20,0.00
2013-9-29,79,64,54,61,54,-100,94,75,44,0.00,40.00,8,5,14,0.00
2013-9-30,78,66,58,64,60,56,96,84,57,0.00,40.00,7,4,12,0.00
2013-10-1,69,66,63,64,63,61,93,90,85,0.00,40.00,3,2,5,0.00
2013-10-2,82,69,57,66,60,56,96,77,44,0.00,40.00,7,3,12,0.01
2013-10-3,85,71,59,64,60,58,98,74,40,0.00,40.00,8,3,14,0.01
2013-10-4,87,72,61,71,64,60,97,79,47,0.00,40.00,5,3,12,0.00
2013-10-5,86,73,62,69,64,61,99,77,47,0.00,40.00,9,4,14,0.00
2013-10-6,86,73,63,71,67,63,99,83,55,0.00,40.00,9,4,17,0.00
2013-10-7,79,72,65,72,68,55,100,88,69,0.00,40.00,10,5,18,0.40
2013-10-8,77,68,59,63,59,54,93,74,61,0.00,40.00,12,9,20,0.07
2013-10-9,77,65,59,63,58,54,96,79,55,0.00,40.00,11,7,19,0.00
2013-10-10,82,69,55,62,56,52,96,68,38,0.00,40.00,8,3,13,0.00
2013-10-11,83,69,60,62,58,54,97,73,37,0.00,40.00,12,4,19,0.00
2013-10-12,83,69,57,59,56,52,97,69,34,0.00,40.00,10,4,16,0.00
2013-10-13,84,70,58,63,57,-100,92,68,38,0.00,40.00,8,5,12,0.00
2013-10-14,71,66,60,63,62,59,99,87,73,0.00,40.00,11,6,17,0.00
2013-10-15,74,68,62,63,61,59,93,79,60,0.00,40.00,9,7,15,0.00
2013-10-16,81,69,56,63,59,55,98,75,45,0.00,40.00,6,3,14,0.00
2013-10-17,84,71,59,70,62,58,98,78,50,0.00,40.00,9,4,19,0.00
2013-10-18,76,70,65,70,63,60,94,81,64,0.00,40.00,9,5,14,0.00
2013-10-19,74,67,62,63,59,55,92,75,53,0.00,40.00,9,4,19,0.00
2013-10-20,76,62,53,58,52,-100,96,74,43,0.00,40.00,8,4,13,0.00
2013-10-21,74,64,54,62,57,51,91,80,63,0.00,40.00,5,3,9,0.00
2013-10-22,75,66,59,65,61,56,96,84,54,0.00,40.00,6,2,10,0.00
2013-10-23,71,61,53,58,44,29,90,59,21,0.00,40.00,17,8,28,0.00
2013-10-24,73,55,39,48,39,34,93,60,26,0.00,40.00,7,3,12,0.00
2013-10-25,64,52,42,46,33,20,87,55,19,0.00,40.00,10,6,19,0.00
2013-10-26,67,48,34,41,34,29,89,62,26,0.00,40.00,5,4,13,0.00
2013-10-27,75,56,41,53,43,-100,94,68,39,0.00,40.00,7,2,14,0.00
2013-10-28,78,63,53,56,50,-100,95,72,38,0.00,40.00,7,3,13,0.00
2013-10-29,80,67,52,57,54,50,97,68,36,0.00,40.00,7,4,11,0.00
2013-10-30,81,66,53,57,54,52,96,68,36,0.00,40.00,7,3,12,0.00
2013-10-31,81,69,56,62,58,54,93,68,50,0.00,40.00,14,7,22,0.00
2013-11-1,72,69,64,70,67,63,99,93,81,0.00,40.00,11,6,21,0.85
2013-11-2,75,64,52,62,48,41,99,63,31,0.00,40.00,14,7,21,0.01
2013-11-3,67,55,43,45,39,-100,91,60,32,0.00,40.00,13,6,19,0.01
2013-11-4,69,55,41,45,42,37,93,65,42,0.00,40.00,14,8,20,0.00
2013-11-5,68,58,48,48,40,35,66,53,38,0.00,40.00,13,9,20,0.00
2013-11-6,74,63,58,62,57,50,97,82,61,0.00,40.00,9,3,14,0.00
2013-11-7,72,62,52,64,54,33,99,78,47,0.00,40.00,13,6,20,0.00
2013-11-8,64,51,38,38,33,30,83,55,28,0.00,40.00,13,7,23,0.00
2013-11-9,71,52,38,49,40,-100,88,68,41,0.00,40.00,9,5,14,0.00
2013-11-10,73,59,49,50,46,36,89,65,28,0.00,40.00,7,3,13,0.00
2013-11-11,73,57,45,45,42,38,92,61,30,0.00,40.00,10,4,13,0.00
2013-11-12,73,57,39,45,39,20,93,56,25,0.00,40.00,18,8,29,0.00
2013-11-13,52,41,32,22,16,10,58,38,20,0.00,40.00,14,10,27,0.00
2013-11-14,64,45,26,39,28,19,79,54,29,0.00,40.00,8,6,13,0.00
2013-11-15,63,54,46,54,47,38,92,79,69,0.00,40.00,7,5,12,0.00
2013-11-16,71,61,52,60,55,-100,100,85,65,0.00,40.00,8,5,14,0.00
2013-11-17,71,67,63,69,65,60,97,91,85,0.00,40.00,9,5,15,0.00
2013-11-18,83,73,58,70,59,34,98,66,37,0.00,40.00,11,7,21,0.09
2013-11-19,66,55,44,37,34,29,69,47,27,0.00,40.00,12,7,20,0.01
2013-11-20,58,51,44,44,36,30,78,57,48,0.00,40.00,11,8,19,0.02
2013-11-21,68,59,52,54,49,40,87,70,59,0.00,40.00,10,8,18,0.02
2013-11-22,73,61,55,62,58,52,99,89,68,0.00,40.00,8,4,12,0.00
2013-11-23,64,60,52,62,54,-100,99,82,43,0.00,40.00,15,7,25,0.01
2013-11-24,54,45,37,28,23,19,56,43,29,0.00,40.00,17,10,24,0.01
2013-11-25,54,44,32,41,25,11,75,48,31,0.00,40.00,12,9,20,0.00
2013-11-26,68,55,46,67,53,42,99,94,75,0.00,40.00,13,8,21,1.28
2013-11-27,48,41,33,47,33,21,98,73,47,0.00,40.00,17,11,31,0.39
2013-11-28,51,35,25,31,23,19,93,65,35,0.00,40.00,8,4,12,0.01
2013-11-29,60,40,28,33,28,24,95,68,27,0.00,40.00,7,3,14,0.00
2013-11-30,54,45,35,37,31,-100,79,61,50,0.00,40.00,11,7,17,0.00
2013-12-1,63,49,40,50,42,34,96,76,59,0.00,40.00,7,3,11,0.00
2013-12-2,66,56,48,49,47,43,98,75,44,0.00,40.00,6,2,9,0.00
2013-12-3,63,57,50,62,56,46,99,95,80,0.00,40.00,8,4,14,0.47
2013-12-4,73,67,63,66,64,62,100,92,78,0.00,40.00,8,6,14,0.01
2013-12-5,72,68,65,70,67,64,100,96,90,0.00,40.00,8,5,16,2.18
2013-12-6,77,68,59,67,65,59,99,89,70,0.00,40.00,11,7,20,0.02
2013-12-7,70,59,52,68,56,-100,98,92,86,0.00,40.00,10,7,17,0.00
2013-12-8,55,53,52,55,53,49,100,99,88,0.00,40.00,8,6,15,0.01
2013-12-9,73,61,52,69,60,52,100,98,84,0.00,40.00,10,4,18,0.65
2013-12-10,69,56,39,68,50,34,100,81,48,0.00,40.00,14,8,25,0.26
2013-12-11,61,45,31,42,35,28,91,72,45,0.00,40.00,11,5,16,0.01
2013-12-12,56,44,35,39,24,12,94,51,17,0.00,40.00,12,6,20,0.00
2013-12-13,61,44,28,41,29,19,77,59,25,0.00,40.00,8,5,11,0.00
2013-12-14,68,57,48,66,53,-100,100,90,81,0.00,40.00,12,6,22,0.87
2013-12-15,60,48,36,58,41,31,94,77,54,0.00,40.00,14,9,21,0.10
2013-12-16,61,42,31,37,31,27,91,70,27,0.00,40.00,9,4,13,0.07
2013-12-17,65,50,33,35,32,26,95,56,24,0.00,40.00,15,6,20,0.00
2013-12-18,60,48,36,35,28,21,83,52,23,0.00,40.00,11,5,19,0.00
2013-12-19,66,46,30,37,31,26,92,63,24,0.00,40.00,8,3,12,0.00
2013-12-20,70,53,39,57,48,35,99,82,62,0.00,40.00,8,3,11,0.00
2013-12-21,77,65,53,68,60,-100,99,86,69,0.00,40.00,12,8,25,0.01
2013-12-22,75,70,66,69,67,65,98,90,79,0.00,40.00,16,9,26,1.01
2013-12-23,71,57,45,66,54,39,98,90,78,0.00,40.00,12,7,23,3.47
2013-12-24,51,41,32,37,27,21,85,59,33,0.00,40.00,13,9,21,0.01
2013-12-25,47,38,28,31,26,22,83,66,49,0.00,40.00,10,7,16,0.00
2013-12-26,55,46,39,41,35,29,91,66,54,0.00,40.00,10,6,15,0.00
2013-12-27,56,44,36,35,34,31,84,68,42,0.00,40.00,9,6,15,0.00
2013-12-28,48,43,40,43,35,-100,98,76,52,0.00,40.00,11,8,20,0.52
2013-12-29,53,50,44,50,47,43,99,91,82,0.00,40.00,10,7,17,2.07
2013-12-30,57,48,37,48,43,36,98,85,62,0.00,40.00,6,3,8,0.01
2013-12-31,50,47,42,46,42,36,94,82,62,0.00,40.00,10,5,13,0.00
2014-1-1,55,46,41,47,40,35,93,81,69,0.00,40.00,6,4,9,0.00
2014-1-2,55,49,36,55,45,25,99,89,58,0.00,40.00,18,8,32,0.47